Florala, AL

1:34 PM CDT on September 26, 2017 (GMT -0500)
Florala

Weather History for K0J4 - January, 2014

Change the Weather History Date:

Thursday, January 2, 2014

  Actual Average (KCEW) Record (KCEW)
Temperature  
Mean Temperature 46 °F -  
Max Temperature 57 °F 59 °F 80 °F (1952)
Min Temperature 34 °F 38 °F 19 °F (2001)
Degree Days  
Heating Degree Days 19    
Moisture  
Dew Point 48 °F    
Average Humidity 88    
Maximum Humidity 100    
Minimum Humidity 67    
Precipitation  
Precipitation 0.19 in - - ()
Sea Level Pressure  
Sea Level Pressure 30.00 in    
Wind  
Wind Speed 4 mph (North)    
Max Wind Speed 13 mph    
Max Gust Speed 23 mph    
Visibility 6 miles    
Events Fog , Rain    
Averages and records for this station are not official NWS values.
T = Trace of Precipitation, MM = Missing Value Source: NWS Daily Summary

Daily Weather History Graph

Daily Weather History Graph

Search for Another Location

Airport or City:

Trip Planner

Search our weather history database for the weather conditions in past years. The results will help you decide how hot, cold, wet, or windy it might be!

Date:

Astronomy

Jan. 02, 2014 Rise Set
Actual Time 6:43 AM CST 4:55 PM CST
Civil Twilight 6:17 AM CST 5:21 PM CST
Nautical Twilight 5:47 AM CST 5:51 PM CST
Astronomical Twilight 5:17 AM CST 6:21 PM CST
Moon 7:31 AM CST (1/2) 6:42 PM CST (1/2)
Length of Visible Light 11h 04m
Length of Day
10h 11m
Waxing Crescent, 3% of the Moon is Illuminated
Jan 2
Waxing Crescent
Jan 7
First Quarter
Jan 15
Full
Jan 23
Last Quarter
Jan 30
New

Hourly Weather History & Observations

Time (CST) Temp. Windchill Dew Point Humidity Pressure Visibility Wind Dir Wind Speed Gust Speed Precip Events Conditions
12:18 AM 51.8 °F - 50.0 °F 94% 30.07 in 6.0 mi Variable 4.6 mph - 0.00 in Rain Light Rain
12:36 AM 51.8 °F - 50.0 °F 94% 30.08 in 5.0 mi ENE 3.5 mph - 0.01 in Rain Rain
12:58 AM 51.1 °F - 50.0 °F 96% 30.08 in 5.0 mi North 4.6 mph - 0.01 in Rain Light Rain
1:32 AM 51.8 °F - 50.0 °F 94% 30.06 in 5.0 mi ENE 4.6 mph - 0.01 in Rain Light Rain
1:58 AM 51.1 °F - 50.0 °F 96% 30.07 in 5.0 mi Calm Calm - 0.01 in   Overcast
2:58 AM 51.1 °F - 50.0 °F 96% 30.02 in 4.0 mi ESE 6.9 mph - 0.00 in Rain Light Rain
3:11 AM 51.8 °F - 50.0 °F 94% 30.02 in 4.0 mi East 4.6 mph - 0.00 in Rain Light Rain
3:45 AM 51.8 °F - 50.0 °F 94% 30.01 in 2.5 mi ESE 4.6 mph - 0.00 in Rain Light Rain
3:57 AM 51.1 °F - 50.0 °F 96% 29.99 in 1.8 mi ESE 4.6 mph - 0.00 in Rain Light Rain
4:58 AM 51.1 °F - 51.1 °F 100% 29.99 in 0.8 mi Calm Calm - 0.00 in   Mist
5:58 AM 51.1 °F - 51.1 °F 100% 29.96 in 1.0 mi Calm Calm - N/A   Mist
6:58 AM 52.0 °F - 51.1 °F 97% 29.95 in 1.0 mi Calm Calm - N/A   Mist
7:58 AM 52.0 °F - 51.1 °F 97% 29.93 in 0.2 mi ESE 3.5 mph - 0.00 in Fog , Rain Light Rain
8:58 AM 53.1 °F - 52.0 °F 96% 29.95 in 0.8 mi South 4.6 mph - 0.00 in Rain Light Rain
9:13 AM 53.6 °F - 51.8 °F 94% 29.96 in 1.0 mi South 4.6 mph - 0.00 in Rain Light Rain
9:36 AM 53.6 °F - 53.6 °F 100% 29.95 in 2.0 mi South 4.6 mph - 0.01 in Rain Rain
9:58 AM 54.0 °F - 53.1 °F 97% 29.97 in 3.0 mi West 8.1 mph - 0.03 in Rain Rain
10:11 AM 53.6 °F - 51.8 °F 94% 29.99 in 2.5 mi Variable 4.6 mph - 0.03 in Rain Heavy Rain
10:16 AM 53.6 °F - 51.8 °F 94% 29.98 in 1.5 mi Calm Calm - 0.06 in Rain Heavy Rain
10:26 AM 53.6 °F - 53.6 °F 100% 29.96 in 1.0 mi Calm Calm - 0.13 in Rain Heavy Rain
10:38 AM 53.6 °F - 53.6 °F 100% 29.96 in 3.0 mi Calm Calm - 0.14 in Rain Light Rain
10:51 AM 53.6 °F - 53.6 °F 100% 29.95 in 9.0 mi Calm Calm - 0.14 in Rain Light Rain
10:58 AM 55.0 °F - 54.0 °F 96% 29.94 in 9.0 mi Calm Calm - 0.14 in Rain Light Rain
11:13 AM 55.4 °F - 53.6 °F 94% 29.94 in 10.0 mi Calm Calm - 0.00 in Rain Light Rain
11:47 AM 55.4 °F - 55.4 °F 100% 29.93 in 10.0 mi Variable 4.6 mph - 0.00 in   Overcast
11:58 AM 55.9 °F - 55.0 °F 97% 29.92 in 3.0 mi Variable 3.5 mph - 0.00 in Rain Light Rain
12:02 PM 55.4 °F - 55.4 °F 100% 29.92 in 2.5 mi Calm Calm - 0.00 in Rain Light Rain
12:14 PM 55.4 °F - 55.4 °F 100% 29.92 in 2.0 mi Variable 3.5 mph - 0.00 in Rain Light Rain
12:23 PM 55.4 °F - 53.6 °F 94% 29.92 in 4.0 mi Variable 5.8 mph - 0.00 in   Overcast
12:40 PM 55.4 °F - 53.6 °F 94% 29.92 in 7.0 mi Variable 4.6 mph - 0.00 in   Overcast
12:58 PM 57.0 °F - 55.0 °F 93% 29.91 in 9.0 mi Calm Calm - 0.00 in   Overcast
1:07 PM 57.2 °F - 55.4 °F 94% 29.92 in 10.0 mi Variable 4.6 mph - N/A   Overcast
1:12 PM 57.2 °F - 53.6 °F 88% 29.93 in 10.0 mi Variable 6.9 mph - N/A   Overcast
1:51 PM 57.2 °F - 51.8 °F 82% 29.91 in 10.0 mi NW 11.5 mph 19.6 mph N/A   Scattered Clouds
1:58 PM 57.9 °F - 51.1 °F 78% 29.91 in 10.0 mi NNW 8.1 mph 19.6 mph N/A   Partly Cloudy
2:58 PM 57.9 °F - 48.9 °F 72% 29.92 in 10.0 mi NNW 8.1 mph - N/A   Scattered Clouds
3:26 PM 55.4 °F - 48.2 °F 77% 29.95 in 10.0 mi North 10.4 mph 16.1 mph N/A   Mostly Cloudy
3:42 PM 55.4 °F - 44.6 °F 67% 29.97 in 10.0 mi NNW 12.7 mph 21.9 mph N/A   Mostly Cloudy
3:58 PM 53.1 °F - 43.0 °F 69% 29.99 in 10.0 mi North 12.7 mph 23.0 mph N/A   Mostly Cloudy
4:33 PM 51.8 °F - 41.0 °F 67% 30.02 in 10.0 mi North 9.2 mph 19.6 mph N/A   Overcast
4:51 PM 48.2 °F - 39.2 °F 71% 30.03 in 10.0 mi Variable 5.8 mph 20.7 mph N/A   Scattered Clouds
4:58 PM 48.9 °F - 39.0 °F 69% 30.04 in 10.0 mi Variable 6.9 mph 23.0 mph N/A   Scattered Clouds
5:58 PM 46.0 °F 41.9 °F 36.0 °F 68% 30.09 in 10.0 mi North 8.1 mph 23.0 mph N/A   Clear
6:58 PM 43.0 °F 36.8 °F 35.1 °F 74% 30.13 in 10.0 mi NNW 11.5 mph 17.3 mph N/A   Clear
7:58 PM 39.9 °F 35.1 °F 32.0 °F 73% 30.16 in 10.0 mi Variable 6.9 mph - N/A   Clear
8:58 PM 37.9 °F 30.5 °F 28.9 °F 70% 30.20 in 10.0 mi NNW 11.5 mph 19.6 mph N/A   Clear
9:58 PM 36.0 °F 29.6 °F 28.0 °F 73% 30.22 in 10.0 mi NNW 8.1 mph - N/A   Clear
10:58 PM 35.1 °F 28.6 °F 26.1 °F 70% 30.24 in 10.0 mi NNW 8.1 mph - N/A   Clear
11:58 PM 34.0 °F 26.6 °F 25.0 °F 70% 30.26 in 10.0 mi North 9.2 mph 18.4 mph N/A   Clear